User: anonymous   Login
Location: Unspecified
(0.0000°N, 0.0000°E)
Time: 17:12:26
(UTC+00:00)
Language:

USA 224 - Orbit

View from above orbital plane
View from above orbital plane
View from above satellite
View from above satellite

Ground track
Ground track

The orbit data is extracted from the following two-line orbital elements,

1 37348U 11002A   15213.00569745 0.00008000  00000-0  78931-4 0    00
2 37348  97.8793 324.2158 0536977 287.8840  72.1158 14.76529627    02
Epoch (UTC): 01 August 2015 00:08:12
Eccentricity: 0.0536977
inclination: 97.8793°
perigee height: 263 km
apogee height: 1017 km
right ascension of ascending node: 324.2158°
argument of perigee: 287.8840°
revolutions per day: 14.76529627
mean anomaly at epoch: 72.1158°
orbit number at epoch: 0

The dashed part of the orbit path shows where the satellite is in the earth's shadow,  

DLR